Wetbulb
55.89 53.28 52.52 54.94 57.34 55.85 54.10 53.80 53.78 57.34 58.11 57.50 56.39 54.45 54.57 57.44 58.00 58.07 58.29 58.65 58.50 57.70 59.73 61.13 62.00 62.41 62.09 61.94 60.81 60.36 59.63 59.36 58.28 56.95 55.82 55.46 54.67 55.41 55.94 56.24 56.21 56.75 56.89 56.96
53.47 51.16 54.49 55.27 57.10 55.05 55.35 55.18 54.92 55.25 56.82 56.94 54.91 53.03 54.47 56.81 56.96 58.57 58.39 58.11 58.20 59.04 58.84 59.94 60.68 60.53 60.20 59.30 59.40 58.84 58.02 57.81 57.49 56.72 56.67 56.04 55.47 55.61 55.12 55.48 55.64 55.39 56.11 56.40
52.86 54.39 56.05 55.60 55.51 55.69 55.85 54.49 54.62 54.04 55.42 56.19 55.11 50.28 52.89 56.29 57.97 58.53 58.98 59.22 58.68 58.07 58.36 58.81 59.07 58.75 58.48 57.66 57.41 57.44 57.53 57.31 57.56 57.65 56.60 56.46 56.22 55.62 54.31 54.17 53.42 55.11 56.04 56.40
55.43 56.72 57.10 57.25 55.38 56.07 53.10 55.61 55.37 54.41 52.59 49.77 56.10 47.04 51.03 53.53 55.33 56.24 57.47 58.09 57.89 58.73 58.89 58.33 58.15 57.51 56.76 56.42 57.06 57.17 57.12 57.31 57.30 58.08 56.67 55.04 53.26 52.12 53.29 53.09 54.21 54.75 56.92 56.70
54.37 55.81 54.99 53.76 53.87 56.40 53.99 57.00 55.22 54.60 53.53 52.20 51.95 48.88 51.83 53.25 52.01 54.83 56.92 56.16 57.48 58.25 58.03 57.31 56.96 56.27 56.02 56.00 56.08 56.25 56.84 57.32 57.37 57.51 56.66 54.83 54.27 54.05 52.76 53.16 53.74 55.55 56.68 55.55
56.48 58.59 56.54 56.37 57.18 57.54 57.56 55.14 54.98 55.10 53.08 46.81 50.43 49.32 49.12 50.57 53.05 54.80 56.30 56.11 57.18 58.07 57.43 56.89 56.75 56.46 55.83 55.97 55.62 55.43 56.10 56.61 57.31 56.98 56.74 55.33 54.79 53.86 52.82 54.09 53.13 54.69 56.59 57.14
55.40 54.80 57.83 58.41 55.34 57.06 55.15 53.93 47.47 45.71 43.93 44.18 51.35 48.67 49.96 53.67 55.57 54.42 55.57 55.97 57.40 58.55 57.48 56.60 55.60 55.17 54.55 54.58 54.58 54.92 55.63 54.66 56.19 56.56 56.43 55.89 54.79 53.97 54.45 53.11 53.84 54.47 54.55 55.56
51.31 48.86 53.93 55.84 54.76 53.31 53.89 53.45 46.54 39.90 41.47 43.76 50.35 45.58 49.66 55.94 57.38 57.12 57.00 57.64 57.38 56.93 56.87 55.65 54.86 53.84 53.68 54.15 54.39 54.62 55.14 54.39 55.70 56.61 56.35 55.90 56.16 54.54 53.62 55.01 54.77 54.44 54.85 55.84
51.61 50.46 54.65 54.80 55.47 54.98 52.63 50.01 53.01 48.13 49.20 45.08 47.65 50.15 53.80 55.42 54.81 55.59 54.90 54.15 55.69 55.72 54.44 54.39 53.81 53.55 53.67 54.04 54.07 54.64 54.97 55.02 56.05 55.80 55.66 55.90 56.39 54.88 55.48 56.08 56.06 55.07 56.43 56.16
54.05 49.23 53.63 54.58 55.38 55.48 53.28 54.17 47.15 48.97 40.75 38.93 44.83 45.27 45.85 50.26 51.91 54.25 54.68 55.17 55.14 54.84 54.44 53.69 53.51 53.67 54.41 54.14 54.42 55.04 55.39 54.73 55.74 55.78 56.00 55.96 56.16 54.97 55.37 55.79 55.51 56.12 56.78 56.76
55.58 51.41 50.88 53.06 51.72 50.46 51.42 50.49 50.88 50.02 47.12 41.36 40.22 43.23 52.13 52.03 53.08 53.03 54.04 55.49 55.44 53.58 54.06 50.70 53.30 53.25 54.12 53.98 54.26 54.67 54.59 54.22 55.73 56.32 55.76 54.86 54.29 54.45 56.04 55.13 56.01 56.07 56.83 56.70
56.04 53.62 48.48 49.33 52.81 54.50 53.51 51.01 50.64 45.85 43.39 44.76 43.65 43.46 53.79 54.71 54.72 55.53 54.80 55.34 54.96 54.66 52.62 53.37 52.83 53.18 53.46 53.11 53.94 54.02 54.06 54.53 55.67 56.39 56.03 56.06 54.43 53.44 55.29 55.71 55.95 56.77 56.13 55.74
56.68 52.58 46.18 47.38 50.66 52.92 50.01 50.46 50.96 49.78 49.26 43.34 41.36 43.42 53.25 53.87 53.78 54.58 54.45 54.17 52.99 53.57 53.39 52.96 53.29 52.94 52.59 52.72 53.58 53.10 54.51 54.89 55.64 56.32 55.64 56.62 56.36 56.42 56.25 56.22 56.96 56.14 55.96 54.69
58.27 52.47 48.68 45.57 47.61 50.86 47.54 49.21 50.88 49.51 44.69 43.26 43.61 45.37 49.54 50.75 51.02 52.32 52.52 52.66 53.11 53.08 50.90 52.30 52.92 52.68 52.65 53.19 53.18 53.80 54.72 55.34 55.67 56.02 56.38 56.00 56.28 56.73 57.19 57.26 57.15 56.72 56.80 54.21
56.70 49.66 50.32 49.62 49.29 48.88 48.35 48.11 47.77 44.88 47.43 43.63 45.16 45.45 47.44 49.05 50.17 51.01 52.08 52.33 51.74 51.42 51.57 52.02 51.81 52.32 52.55 53.18 53.02 54.20 54.79 55.28 56.02 55.60 56.03 56.26 57.21 57.09 57.53 57.16 57.12 57.15 57.01 56.55
55.62 49.48 51.11 48.25 49.39 47.67 44.09 45.46 45.74 46.51 47.06 46.76 46.59 45.84 50.20 51.31 51.55 50.46 50.65 50.77 50.70 50.96 51.25 51.12 51.45 51.69 51.49 52.28 53.14 54.06 54.91 55.38 56.60 55.85 54.79 56.12 57.51 57.02 56.99 57.16 56.98 57.48 57.35 57.26
53.18 51.66 49.22 44.41 47.75 43.69 41.56 44.28 46.82 46.55 48.18 47.92 43.04 46.35 49.35 48.52 49.14 50.21 50.70 51.13 51.06 51.28 50.70 51.00 51.21 51.96 53.08 52.99 54.01 54.18 55.05 55.87 55.96 55.07 55.98 55.61 56.20 56.44 56.87 56.66 56.60 56.96 57.62 57.99
53.89 52.14 52.32 46.85 47.47 35.98 46.06 50.21 49.17 47.81 47.71 48.09 47.43 47.87 48.44 49.19 50.72 51.53 52.53 51.80 51.62 51.21 51.03 51.61 52.91 53.97 54.39 54.59 54.69 55.50 55.85 55.79 55.65 55.24 54.80 55.17 55.42 55.24 54.47 57.11 56.62 57.49 59.10 57.98
57.57 54.07 49.09 45.20 44.20 45.61 45.93 48.90 48.67 47.08 45.53 49.56 48.67 49.32 49.80 50.60 52.00 52.02 53.05 52.66 52.64 52.16 52.81 52.98 53.73 54.09 54.81 54.60 55.57 55.12 55.37 55.67 55.74 55.34 55.24 55.89 56.45 55.61 55.16 54.89 56.52 57.63 57.81 58.87
56.04 55.26 52.03 49.17 40.87 36.96 45.46 49.40 52.58 52.89 43.96 50.76 50.87 50.40 50.31 51.45 46.32 48.81 53.33 53.24 53.06 53.50 54.01 53.48 53.60 54.11 54.37 55.25 55.96 55.22 54.84 55.28 54.27 55.58 56.12 57.12 57.51 56.60 56.63 56.14 55.64 57.67 57.92 58.80
50.52 51.11 47.43 44.67 42.61 43.70 50.76 51.46 52.32 42.29 44.19 52.59 52.27 51.96 51.86 50.14 51.36 53.63 54.55 53.58 54.10 54.53 54.46 54.80 54.28 53.98 54.67 55.57 56.07 55.22 55.16 54.88 56.35 56.83 57.26 56.95 57.92 58.06 58.22 58.75 58.48 55.77 56.24 56.21
47.65 47.62 46.51 47.08 42.20 37.98 53.40 51.97 46.94 51.75 53.57 53.60 53.80 53.60 52.91 53.72 54.11 54.08 53.94 53.70 53.99 54.19 54.34 55.01 54.55 54.44 55.44 55.94 55.78 55.17 55.19 56.71 57.31 57.50 57.30 57.20 58.15 57.74 57.35 58.60 59.05 57.67 55.66 55.25
45.72 50.22 46.90 48.53 46.36 54.05 55.29 53.12 53.53 54.63 52.42 53.71 55.54 55.52 53.48 52.91 52.83 54.56 54.77 54.49 54.52 54.49 54.96 55.42 54.89 54.40 55.60 56.43 56.46 54.96 56.30 57.42 57.44 57.43 57.03 57.33 58.05 58.00 58.10 57.94 58.57 57.42 56.17 53.88
51.74 53.92 50.52 49.67 52.37 52.87 52.41 54.07 55.93 55.50 53.77 53.54 55.34 55.36 53.58 51.71 52.17 53.85 54.42 55.77 55.49 55.47 54.97 55.57 54.99 54.15 54.31 55.44 56.51 56.74 57.11 57.42 57.10 56.96 56.41 57.16 57.34 56.95 58.25 58.58 57.20 56.77 56.40 54.63
52.55 53.70 51.44 49.31 51.35 53.34 51.72 53.34 54.27 54.29 55.34 55.47 56.05 56.01 55.18 54.81 53.44 54.11 55.13 55.44 56.04 56.19 56.17 56.32 55.29 54.49 54.71 55.97 56.26 57.28 57.13 57.57 56.83 56.96 57.46 57.33 56.79 57.18 57.08 57.53 57.26 57.08 58.56 54.95
52.23 51.57 48.84 47.33 52.23 51.61 51.45 53.63 52.93 52.22 52.77 53.49 53.51 53.75 54.81 55.06 54.81 55.89 55.71 56.59 56.44 56.21 56.24 56.54 56.55 55.93 55.56 55.82 56.22 56.80 57.64 57.63 57.17 56.50 56.21 56.47 56.05 55.26 55.39 56.37 56.40 46.69 46.20 42.79
MSLP
1008.45 1008.07 1007.58 1007.81 1008.57 1009.06 1009.48 1010.39 1011.75 1013.47 1015.49 1016.06 1016.76 1018.85 1020.47 1021.18 1021.55 1021.45 1021.62 1022.07 1022.49 1023.33 1024.01 1024.48 1024.74 1024.97 1025.30 1025.92 1026.16 1026.33 1026.36 1026.52 1026.21 1025.44 1025.11 1024.74 1024.32 1024.00 1023.77 1023.72 1023.92 1023.76 1023.19 1022.67
1008.19 1007.48 1007.63 1008.50 1008.97 1009.58 1009.82 1010.86 1012.51 1014.85 1015.86 1016.37 1017.48 1018.52 1020.08 1020.77 1020.77 1020.81 1021.25 1021.69 1022.15 1022.79 1023.67 1024.15 1024.63 1025.25 1025.80 1026.24 1026.49 1026.66 1026.75 1026.74 1026.42 1025.91 1025.55 1025.37 1024.74 1024.10 1023.99 1023.65 1023.66 1023.50 1023.20 1022.67
1007.17 1007.54 1008.70 1008.98 1009.38 1009.66 1010.04 1010.62 1012.38 1013.26 1015.47 1016.28 1016.98 1018.28 1019.39 1020.23 1020.32 1020.81 1021.24 1021.66 1021.81 1022.39 1023.30 1024.02 1024.71 1025.47 1025.87 1026.36 1026.69 1026.81 1026.85 1026.79 1026.62 1026.50 1025.42 1025.18 1024.36 1023.82 1023.85 1023.80 1023.66 1023.45 1022.92 1022.55
1007.80 1008.92 1009.06 1009.12 1009.41 1009.75 1010.12 1011.87 1012.56 1013.67 1014.59 1014.20 1015.86 1015.84 1018.16 1019.32 1019.67 1020.50 1021.23 1021.35 1021.57 1022.85 1023.47 1024.25 1024.87 1025.57 1026.08 1026.38 1026.58 1026.81 1026.86 1026.79 1026.39 1026.34 1025.69 1025.51 1024.68 1024.27 1024.39 1024.01 1023.59 1023.03 1022.98 1022.58
1008.20 1008.83 1009.12 1009.43 1011.11 1011.33 1012.46 1012.66 1013.13 1013.87 1013.72 1014.59 1014.96 1016.10 1017.06 1018.61 1018.98 1019.97 1020.91 1021.48 1021.84 1022.51 1023.43 1024.43 1025.18 1025.74 1026.16 1026.34 1026.45 1026.66 1026.68 1026.58 1026.43 1026.20 1026.03 1025.49 1025.14 1024.62 1024.66 1024.19 1023.94 1023.47 1023.02 1023.15
1008.80 1009.52 1010.02 1010.92 1011.45 1011.39 1012.60 1013.22 1013.42 1013.33 1012.84 1012.54 1013.23 1015.19 1016.41 1017.85 1018.30 1019.45 1020.37 1021.10 1021.66 1022.58 1023.84 1024.69 1025.27 1025.64 1025.84 1025.96 1026.06 1026.17 1026.38 1026.32 1026.24 1026.06 1025.78 1025.74 1025.50 1025.33 1024.72 1024.33 1023.96 1023.20 1023.12 1022.66
1009.21 1010.06 1011.08 1011.50 1011.83 1012.47 1012.61 1012.71 1011.54 1010.99 1011.89 1011.52 1013.88 1015.16 1016.82 1017.62 1018.15 1018.84 1019.65 1020.68 1021.62 1022.78 1023.68 1024.38 1024.77 1025.11 1025.54 1025.80 1026.00 1026.05 1026.14 1026.14 1026.06 1025.86 1025.69 1025.65 1025.60 1025.27 1024.53 1024.56 1023.79 1023.40 1022.96 1022.73
1009.11 1010.05 1011.22 1011.47 1011.23 1011.23 1011.34 1011.93 1011.78 1011.23 1011.30 1012.06 1014.06 1015.37 1017.32 1018.06 1018.64 1019.11 1019.78 1020.62 1022.00 1022.93 1023.69 1024.21 1024.95 1025.30 1025.46 1025.85 1026.09 1026.08 1026.00 1026.02 1025.96 1025.69 1025.57 1025.50 1025.39 1024.94 1024.78 1024.21 1024.03 1023.36 1023.20 1022.82
1010.07 1010.48 1011.68 1011.98 1011.80 1011.81 1011.29 1011.84 1012.51 1012.41 1012.10 1012.51 1014.00 1016.18 1018.02 1018.78 1019.44 1019.95 1020.96 1021.61 1022.19 1023.00 1023.96 1024.35 1025.00 1025.40 1025.67 1025.95 1026.10 1026.20 1026.16 1025.97 1025.78 1025.67 1025.72 1025.41 1025.23 1025.36 1024.86 1024.36 1024.04 1023.36 1023.17 1022.70
1011.67 1011.31 1012.00 1012.15 1012.29 1012.12 1012.28 1012.88 1012.42 1011.98 1012.34 1013.13 1014.39 1016.23 1017.67 1018.53 1018.67 1019.58 1020.67 1021.23 1022.31 1023.35 1023.94 1024.60 1025.23 1025.72 1026.01 1026.07 1026.01 1026.27 1026.20 1025.99 1025.81 1025.75 1025.40 1025.41 1025.35 1025.30 1025.02 1024.55 1023.93 1023.67 1023.36 1022.94
1012.58 1012.59 1012.26 1012.66 1013.02 1012.85 1012.55 1012.68 1013.45 1014.01 1014.34 1014.20 1014.56 1017.31 1018.75 1019.03 1019.32 1019.57 1019.91 1020.86 1022.43 1023.40 1023.91 1025.00 1025.15 1025.34 1025.85 1025.83 1025.79 1025.96 1025.99 1025.86 1025.63 1025.38 1025.75 1025.73 1025.71 1025.44 1024.72 1024.45 1023.91 1023.67 1023.31 1023.02
1014.17 1013.80 1013.14 1013.70 1014.63 1014.41 1014.60 1014.78 1014.71 1014.19 1014.88 1015.95 1016.27 1018.47 1019.47 1019.84 1020.23 1020.72 1020.92 1022.06 1023.03 1023.62 1024.41 1024.67 1025.48 1025.48 1025.71 1025.71 1025.76 1025.87 1025.99 1025.69 1025.54 1025.37 1025.69 1025.44 1025.59 1025.48 1024.93 1024.48 1024.03 1023.60 1023.36 1023.25
1015.13 1014.86 1014.21 1014.26 1015.13 1015.30 1015.73 1016.03 1016.24 1016.41 1016.49 1017.18 1016.71 1018.48 1019.93 1020.48 1020.74 1021.59 1021.81 1022.55 1023.54 1024.13 1024.55 1025.04 1025.06 1025.25 1025.69 1025.99 1025.98 1026.02 1025.84 1025.65 1025.44 1025.43 1025.47 1025.12 1025.12 1024.87 1024.60 1024.27 1024.01 1023.86 1023.55 1023.47
1016.18 1016.33 1015.95 1015.55 1016.33 1016.74 1017.51 1017.84 1017.78 1017.43 1017.31 1018.05 1019.13 1019.26 1020.21 1021.20 1021.55 1021.98 1022.63 1023.26 1023.74 1024.38 1024.81 1024.95 1025.05 1025.23 1025.62 1026.13 1026.07 1025.94 1025.78 1025.70 1025.47 1025.25 1025.20 1025.04 1024.80 1024.58 1024.42 1024.12 1023.91 1023.59 1023.21 1023.39
1016.77 1017.12 1017.47 1018.13 1018.83 1019.48 1020.06 1020.21 1020.72 1020.79 1020.05 1019.66 1020.34 1020.61 1021.78 1022.28 1022.59 1022.92 1023.27 1023.64 1023.97 1024.35 1024.58 1024.67 1025.08 1025.39 1025.56 1025.92 1026.07 1025.90 1025.76 1025.65 1025.44 1025.35 1025.15 1024.98 1024.65 1024.29 1024.19 1024.07 1023.85 1023.63 1023.39 1023.26
1017.59 1018.09 1018.65 1019.43 1020.81 1022.14 1022.71 1022.79 1022.38 1021.75 1021.72 1021.33 1021.31 1021.72 1022.58 1022.83 1023.21 1023.31 1023.58 1023.80 1023.82 1024.07 1024.49 1024.88 1025.26 1025.47 1025.71 1025.94 1026.07 1025.96 1025.75 1025.64 1025.43 1025.28 1025.27 1024.97 1024.40 1024.10 1024.09 1024.01 1023.88 1023.75 1023.50 1023.35
1017.83 1018.45 1018.99 1019.98 1021.81 1023.24 1023.21 1022.97 1022.34 1022.57 1022.80 1022.60 1022.44 1022.93 1023.04 1023.06 1023.35 1023.51 1023.63 1023.87 1024.01 1024.42 1024.91 1025.08 1025.35 1025.59 1025.87 1025.88 1026.10 1025.89 1025.75 1025.64 1025.35 1025.37 1024.88 1024.58 1024.53 1024.15 1023.99 1023.88 1023.72 1023.64 1023.56 1023.43
1018.39 1018.89 1019.75 1020.64 1021.87 1023.15 1023.36 1023.12 1023.17 1023.12 1023.39 1023.38 1023.29 1023.45 1023.60 1023.75 1023.74 1023.81 1023.96 1024.00 1024.20 1024.58 1024.97 1025.24 1025.38 1025.63 1025.91 1025.90 1025.84 1025.91 1025.65 1025.35 1025.22 1025.20 1024.51 1024.29 1024.29 1024.32 1024.21 1023.70 1023.74 1023.59 1023.42 1023.36
1019.30 1019.16 1019.85 1020.67 1021.53 1022.83 1022.85 1023.13 1023.00 1022.50 1023.59 1023.89 1023.78 1023.74 1023.70 1023.79 1023.48 1023.49 1024.25 1024.40 1024.59 1024.88 1025.21 1025.49 1025.65 1025.81 1025.87 1025.77 1025.80 1025.77 1025.46 1025.08 1024.95 1024.63 1024.33 1024.27 1024.24 1023.79 1023.84 1023.61 1023.66 1023.62 1023.46 1023.12
1019.48 1019.51 1019.81 1020.56 1021.50 1022.37 1023.55 1023.29 1023.20 1023.00 1022.91 1024.13 1024.14 1023.93 1023.86 1023.54 1022.62 1023.09 1024.26 1024.45 1024.68 1025.01 1025.24 1025.50 1025.55 1025.69 1025.72 1025.51 1025.68 1025.50 1025.17 1024.89 1024.91 1024.42 1024.38 1024.17 1024.10 1024.04 1023.61 1023.67 1023.56 1023.37 1023.13 1022.88
1020.10 1020.25 1020.68 1021.49 1022.29 1023.79 1024.14 1023.64 1023.41 1023.02 1024.62 1024.54 1024.34 1024.11 1024.08 1023.90 1024.18 1024.14 1024.24 1024.37 1024.70 1024.95 1025.10 1025.28 1025.36 1025.29 1025.32 1025.38 1025.40 1025.11 1024.87 1024.68 1024.61 1024.49 1024.34 1024.15 1024.17 1023.88 1023.74 1023.44 1023.38 1023.32 1023.02 1022.79
1021.39 1021.08 1021.54 1021.99 1022.95 1024.32 1024.82 1024.16 1024.24 1025.24 1025.12 1024.78 1024.29 1024.09 1024.24 1024.13 1024.08 1024.05 1024.12 1024.23 1024.34 1024.51 1024.66 1024.81 1024.76 1024.79 1024.86 1024.98 1024.99 1024.75 1024.53 1024.50 1024.45 1024.33 1024.13 1023.89 1023.78 1023.51 1023.16 1023.03 1022.77 1022.92 1022.87 1022.57
1022.60 1023.25 1023.19 1023.62 1024.63 1025.47 1025.97 1026.26 1026.44 1026.09 1025.81 1025.15 1024.41 1024.16 1024.52 1024.37 1024.08 1023.85 1023.86 1023.95 1023.96 1024.03 1024.12 1024.23 1024.33 1024.35 1024.39 1024.37 1024.47 1024.34 1024.11 1024.25 1024.14 1023.95 1023.83 1023.74 1023.47 1023.02 1022.74 1022.38 1022.28 1022.09 1022.37 1022.14
1023.79 1023.94 1023.69 1024.60 1025.73 1026.27 1026.82 1026.92 1026.74 1026.57 1026.29 1025.90 1025.08 1024.82 1024.85 1024.62 1024.46 1023.97 1023.71 1023.53 1023.62 1023.59 1023.54 1023.65 1023.78 1023.85 1023.72 1023.71 1023.75 1023.90 1023.89 1023.85 1023.84 1023.58 1023.69 1023.45 1022.95 1022.68 1022.48 1022.19 1021.38 1021.21 1021.35 1021.45
1024.81 1024.58 1025.08 1025.88 1026.51 1026.30 1026.94 1027.23 1027.08 1026.65 1026.30 1025.96 1025.57 1025.13 1024.84 1024.52 1024.31 1023.99 1023.61 1023.54 1023.27 1023.23 1023.17 1023.28 1023.26 1023.20 1023.18 1023.23 1023.24 1023.32 1023.39 1023.54 1023.40 1023.42 1023.20 1022.82 1022.20 1022.21 1021.89 1021.62 1021.33 1021.51 1021.41 1021.43
1026.98 1026.99 1026.38 1027.03 1027.68 1027.60 1027.71 1027.55 1027.65 1027.17 1026.71 1026.46 1026.02 1025.32 1025.03 1024.84 1024.51 1024.17 1023.74 1023.36 1023.03 1022.86 1022.75 1022.60 1022.77 1022.78 1022.68 1022.66 1022.63 1022.78 1022.86 1022.99 1022.97 1023.04 1022.86 1022.36 1021.99 1021.67 1021.25 1020.89 1020.98 1021.37 1021.68 1022.12
Wind_Speed
9 9 11 10 12 7 7 5 4 7 2 6 3 8 9 9 10 12 10 9 7 6 5 3 2 6 5 7 7 8 9 10 9 8 9 9 9 8 8 7 10 11 11 11
8 14 4 6 3 4 5 7 7 3 4 6 7 7 9 11 9 9 9 8 7 9 5 4 4 6 7 6 7 8 8 8 9 9 8 8 8 8 6 7 9 10 10 10
13 9 4 4 8 9 7 7 8 2 9 5 9 7 11 13 9 9 8 7 5 4 3 3 6 5 6 7 7 8 8 8 8 10 8 8 7 7 9 9 7 9 9 10
4 6 8 10 7 5 6 2 6 9 12 6 14 3 12 12 13 11 9 8 7 6 5 5 5 5 6 7 7 8 8 8 9 10 10 10 9 9 9 9 8 8 9 11
9 9 6 2 6 6 8 5 3 7 8 4 14 7 8 13 12 10 9 5 6 5 6 6 6 5 4 6 7 6 7 7 9 10 10 10 10 8 6 7 10 10 7 9
9 4 7 6 6 10 11 7 7 8 8 12 5 5 5 6 8 9 12 11 9 9 8 7 5 3 4 6 7 6 8 8 9 9 10 10 10 10 9 9 9 7 7 7
7 6 9 7 7 4 2 8 8 9 7 3 6 4 7 5 6 12 13 11 9 9 8 6 4 5 6 9 9 7 9 9 10 9 9 10 10 8 9 7 5 9 8 7
5 8 3 2 7 11 5 8 10 14 11 11 7 4 5 6 6 7 9 10 9 8 7 5 6 7 7 8 8 8 9 10 10 10 10 8 9 8 5 7 7 7 7 7
5 3 3 8 2 6 4 6 9 11 12 9 7 8 7 6 6 5 7 6 6 6 7 5 5 6 7 8 7 8 9 9 10 11 9 9 9 9 9 7 7 7 7 7
5 7 1 3 5 7 8 5 8 5 7 8 4 8 8 7 3 5 7 6 4 5 5 6 6 7 7 7 6 7 8 9 11 9 9 9 11 10 8 8 7 7 7 7
5 4 5 6 8 10 4 8 4 4 5 6 4 7 8 8 8 10 9 5 4 2 6 2 6 5 6 6 6 6 7 8 9 9 9 8 8 10 10 7 6 7 7 7
6 5 6 9 5 8 12 8 7 9 5 5 5 7 7 9 10 10 9 5 3 4 3 5 2 6 6 7 7 7 6 7 7 7 8 7 5 5 7 7 7 6 7 8
5 4 8 11 8 5 7 7 4 3 2 8 8 7 7 8 7 9 7 5 4 1 1 3 5 6 6 6 6 6 7 7 7 7 8 9 7 5 5 5 7 7 7 6
3 4 5 9 8 9 9 14 14 8 5 5 8 4 11 12 11 8 7 4 2 1 2 5 7 7 5 4 6 6 6 6 6 6 7 8 9 8 6 6 7 6 7 6
5 7 12 15 15 18 18 19 19 15 10 9 7 8 11 11 11 10 6 2 2 3 5 7 7 7 5 4 5 6 5 5 6 7 7 8 8 7 7 7 7 8 8 8
3 7 13 15 15 19 13 12 6 4 9 6 6 8 9 7 7 7 5 4 5 6 7 6 5 4 3 3 5 6 4 5 6 7 7 6 7 7 7 6 6 6 7 7
2 8 7 3 13 11 2 13 10 7 8 11 8 10 11 10 8 7 6 5 6 7 6 6 5 4 3 4 4 5 5 5 6 6 6 5 7 7 5 5 4 5 6 5
5 4 1 4 6 4 3 9 3 8 8 10 9 11 9 9 8 5 7 7 6 5 5 4 4 2 2 3 4 5 6 5 5 5 5 6 4 4 7 5 5 3 2 4
7 3 4 2 7 7 15 12 6 3 11 10 10 10 9 8 9 6 7 6 6 5 4 4 4 3 3 4 4 6 6 6 4 3 4 5 6 5 3 5 4 3 4 2
9 5 0 2 5 5 11 10 5 6 7 11 10 10 10 11 9 10 8 5 4 3 4 5 4 4 5 5 4 6 6 6 4 4 5 6 6 7 6 5 5 5 4 3
6 5 8 6 4 8 11 12 5 3 9 9 8 9 9 9 8 8 8 5 4 6 5 5 6 6 6 6 6 7 6 6 4 5 6 4 6 6 6 6 4 5 5 5
6 5 5 3 2 4 13 7 8 8 7 10 8 7 9 9 7 7 6 5 5 6 6 7 7 7 6 6 7 8 7 6 5 6 7 5 7 6 7 6 5 5 5 5
4 8 5 8 7 6 11 10 10 9 10 10 13 11 8 10 9 8 7 6 6 6 7 7 7 7 7 7 7 8 8 7 7 7 7 7 7 8 6 8 6 5 5 6
7 1 3 6 9 12 13 13 14 14 12 12 14 14 11 9 8 12 8 7 6 6 6 6 7 8 9 7 7 7 8 7 8 8 7 8 6 7 8 7 6 5 4 4
8 5 7 7 11 1 10 13 17 17 14 16 16 14 13 12 12 13 12 9 9 8 7 7 7 8 9 7 7 7 8 9 10 9 8 7 7 6 8 8 6 7 5 4
7 9 8 7 10 10 13 14 17 16 16 16 17 16 15 14 15 15 13 12 12 11 10 9 9 9 9 9 9 8 9 10 11 8 9 7 7 6 7 5 9 8 8 3
Wind_Direction
199 233 227 202 235 339 292 250 181 106 85 243 228 153 164 149 172 179 163 164 167 154 163 167 64 38 61 50 40 23 8 2 343 343 343 343 344 341 343 349 346 331 328 317
215 240 47 295 102 255 158 141 130 124 167 255 187 157 161 163 193 175 168 165 173 175 162 119 71 60 62 51 25 16 8 5 359 354 341 339 329 331 339 349 334 338 326 316
264 39 97 177 156 170 159 208 167 357 163 227 196 179 181 176 178 177 167 177 159 145 115 110 89 66 60 39 16 17 7 6 12 353 351 347 329 340 355 348 355 341 331 322
76 123 157 158 165 266 207 322 190 163 186 274 203 343 172 179 176 179 171 180 145 120 121 104 107 78 50 21 16 13 8 5 11 2 354 348 347 353 358 345 347 343 355 357
96 148 166 48 13 9 57 76 167 183 242 207 191 257 106 180 204 191 174 161 139 133 113 103 94 78 50 23 11 20 360 6 3 0 5 348 2 358 349 355 6 343 358 9
103 84 26 82 80 129 136 124 171 206 233 239 91 225 104 177 228 145 152 158 144 130 128 128 119 104 40 20 9 15 8 7 3 358 7 10 1 353 341 3 335 1 359 6
141 80 114 114 107 130 215 221 259 261 181 308 79 247 49 107 115 148 151 133 135 138 144 145 115 47 25 16 9 0 14 359 1 358 359 15 2 328 341 337 350 333 357 15
262 167 328 15 277 302 228 304 296 306 318 332 132 339 81 81 92 92 139 127 129 136 138 114 73 35 15 16 11 5 6 359 353 356 351 12 0 344 336 342 340 347 340 354
302 162 136 45 35 311 87 254 8 290 249 255 62 82 91 115 119 119 102 153 144 133 124 117 81 39 20 3 22 357 359 359 355 355 358 353 353 348 341 339 324 355 342 348
48 289 106 57 269 97 8 18 298 271 310 335 102 73 62 30 86 101 183 195 140 143 143 98 51 27 14 2 8 5 349 357 1 354 18 13 360 347 334 332 347 343 348 357
351 319 78 241 22 354 329 18 353 303 341 302 302 80 26 29 20 6 3 46 136 146 98 106 56 35 347 4 10 17 358 6 354 16 3 4 347 341 348 350 353 351 353 2
35 324 334 44 73 51 53 18 356 337 92 49 311 78 35 22 25 2 20 63 138 92 131 55 353 3 4 2 8 16 348 349 360 31 349 342 326 323 332 355 360 358 2 4
10 51 278 174 172 99 43 37 26 44 254 32 322 82 51 21 7 21 15 69 103 148 109 3 346 355 9 353 356 358 356 353 352 26 341 343 347 329 334 355 12 5 4 16
50 30 330 4 41 70 68 45 27 24 34 86 42 26 35 10 4 16 21 24 99 204 359 338 329 348 24 339 355 345 356 357 358 355 339 350 3 8 17 21 19 20 36 37
53 76 83 74 70 68 46 44 37 36 18 29 28 34 11 4 354 359 355 348 340 293 308 336 337 340 344 9 347 354 1 349 346 339 347 0 1 34 38 35 35 41 44 46
106 121 117 89 68 55 54 16 146 15 4 36 30 42 5 353 332 341 333 319 307 333 340 334 328 330 326 346 339 337 357 341 330 348 351 352 20 31 39 35 40 39 38 41
154 157 206 146 94 87 129 15 18 73 42 17 16 354 348 347 346 342 335 306 323 340 334 330 330 323 313 323 332 319 320 308 319 335 338 18 23 3 33 37 34 28 21 24
138 156 185 96 115 68 44 26 19 76 42 19 17 1 358 340 331 326 337 326 323 334 322 335 320 292 254 306 313 321 293 290 320 305 356 2 24 1 334 344 3 2 31 7
24 303 104 102 87 139 49 14 350 359 57 24 7 2 3 341 283 120 3 332 317 335 334 326 323 302 277 285 316 301 283 288 309 335 1 14 355 1 2 324 328 317 339 32
51 86 109 81 66 43 19 2 3 239 84 19 1 2 360 327 355 25 358 337 295 297 310 300 275 271 274 276 287 281 270 279 292 323 336 332 347 345 348 351 314 323 313 276
35 53 46 55 83 76 4 6 243 283 22 347 352 359 357 348 349 330 328 316 285 300 303 281 260 270 285 284 280 273 263 266 288 299 299 310 307 299 307 312 284 291 291 321
42 331 41 51 102 96 4 37 24 9 343 327 345 346 344 330 332 335 332 313 293 284 277 260 268 265 267 264 266 270 249 263 269 277 278 303 304 313 316 320 306 261 272 260
66 34 38 4 63 68 41 21 353 331 315 313 330 336 314 311 316 318 322 321 310 292 285 279 276 268 260 259 259 267 251 246 257 262 270 285 284 306 305 315 319 285 213 269
93 35 111 165 33 74 48 11 16 11 3 332 318 337 319 300 297 302 296 306 302 289 270 265 259 256 261 260 261 254 257 242 256 261 254 259 278 312 288 285 301 313 278 273
8 327 47 92 27 101 52 0 3 348 348 343 343 347 343 328 313 307 304 307 296 293 280 263 257 255 263 260 263 260 242 244 249 270 276 264 259 267 285 270 321 308 288 288
7 8 21 48 23 4 6 353 357 347 347 345 335 336 340 338 334 331 320 313 300 290 286 265 255 255 254 255 254 253 246 242 250 255 253 262 287 285 293 295 298 214 239 219